SHIYAN-12 02 (SY-12 02)

Last updated on Thu Oct 30 2025 00:02:52 GMT+0000 (Coordinated Universal Time)

1 50322U 21129B 25302.73319447 -.00000328 00000+0 00000+0 0 9999 2 50322 3.0749 83.1149 0002821 171.8608 159.1294 1.00099160 14188
UTC large
Height (km)
Speed (km/s)
/
Latitude / Longitude
Inclination (degrees)
Orbital Period (minutes)
Azimuth
Elevation
Range (km)
Doppler Factor

Next 0 passes for location: London (51.5072 / 0.1276)

Sorry there are no passes over London.